Flag for U.S.A. Weather past 2 weeks in Eau Claire, Wisconsin, U.S.A.

Now
56 °F

Overcast.


Feels Like: 54 °F
Forecast: 44 / 62 °F
Wind: 9 mph from North

Location: Eau Claire County Airport

Current Time: May 30, 2015 at 2:36:59 PM

Latest Report: May 30, 2015 at 1:56 PM


Visibility: 10 mi

Pressure: 30.22 "Hg

Humidity: 67%

Dew point: 45 °F

Location of Eau ClaireLocation

Historic Weather in Eau Claire — Graph

°F

Eau Claire temperature yesterday

Maximum temperature yesterday: 71 °F (at 12:56 PM)
Minimum temperature yesterday: 58 °F (at 11:56 PM)
Average temperature yesterday: 66 °F

Past Weeks' High & Low Weather Summary

 TemperatureHumidityPressure
High84 °F (May 28, 2:56 PM)100% (May 26, 1:56 AM)30.41 "Hg (May 26, 1:56 AM)
Low30 °F (May 20, 4:56 AM)23% (May 22, 2:56 PM)29.59 "Hg (May 17, 5:56 PM)
Average59 °F71%29.99 "Hg
* Reported May 15 12:56 PM — May 30 12:56 PM, Eau Claire, Weather by CustomWeather, © 2015

Note: Actual official high and low records may vary slightly from our data, if they occured in-between our weather recording intervals... More about our weather records

Advertising

Eau Claire weather history for previous 24 hours

 ConditionsComfort  
Time TempWeatherWind HumidityBarometerVisibility
12:56 PM
Sat, May 30
55 °FOvercast.14 mph69%30.21 "Hg10 mi
11:56 AM55 °FOvercast.9 mph69%30.20 "Hg10 mi
10:56 AM54 °FOvercast.14 mph72%30.18 "Hg10 mi
9:56 AM54 °FOvercast.9 mph72%30.16 "Hg10 mi
8:56 AM52 °FOvercast.13 mph75%30.15 "Hg10 mi
7:56 AM52 °FMostly cloudy.10 mph75%30.13 "Hg10 mi
6:56 AM51 °FOvercast.9 mph77%30.11 "Hg10 mi
5:56 AM51 °FOvercast.10 mph80%30.09 "Hg10 mi
4:56 AM52 °FOvercast.10 mph80%30.06 "Hg10 mi
3:56 AM52 °FOvercast.12 mph83%30.03 "Hg10 mi
2:56 AM53 °FOvercast.12 mph86%30.02 "Hg10 mi
1:56 AM55 °FLow clouds.13 mph90%30.01 "Hg10 mi
12:56 AM57 °FMostly cloudy.12 mph90%29.99 "Hg10 mi
11:56 PM
Fri, May 29
58 °FLight rain. Overcast.9 mph90%29.98 "Hg10 mi
10:56 PM60 °FLight rain. Mostly cloudy.9 mph90%29.95 "Hg10 mi
10:01 PM62 °FLight rain. Mostly cloudy.13 mph93%29.93 "Hg8 mi
8:56 PM64 °FCloudy.5 mph87%29.91 "Hg10 mi
7:56 PM65 °FOvercast.5 mph91%29.89 "Hg10 mi
6:56 PM65 °FMore clouds than sun.7 mph91%29.87 "Hg10 mi
5:59 PM67 °FLight rain. Cloudy.7 mph90%29.87 "Hg10 mi
4:56 PM66 °FRain. Fog.8 mph90%29.88 "Hg6 mi
3:56 PM69 °FRain. Fog.8 mph87%29.88 "Hg6 mi
2:56 PM71 °FPartly sunny.6 mph78%29.87 "Hg10 mi
Weather by CustomWeather, © 2015

See weather overviewHow to use our weather pages